This demonstration page uses our WeatherBlox Daily Observations layout. Learn more.

Left ArrowRight Arrow

Hourly Observations for January 27, 2017

Temp ( °F °C ) Dew Point ( °F °C ) Humidity (%) Winds ( mph kmh ) Pressure ( in mb ) Visibility ( mi km ) Precip ( " mm )
12:16 am 00:16 Cloudy 30 -1 27 -3 86 86 W 13 20 30.03 1017 10 16 N/A
12:36 am 00:36 Cloudy 30 -1 27 -3 86 86 W 13 20 30.03 1017 10 16 N/A
12:55 am 00:55 Cloudy 30 -1 27 -3 86 86 W 13 20 30.03 1017 10 16 N/A
1:16 am 01:16 Cloudy 30 -1 27 -3 86 86 W 15 24 30.03 1017 10 16 N/A
1:36 am 01:36 Cloudy 30 -1 25 -4 80 80 W 14 22 30.03 1017 10 16 N/A
1:55 am 01:55 Cloudy 30 -1 25 -4 80 80 W 12 19 30.03 1017 10 16 N/A
2:16 am 02:16 Cloudy 30 -1 25 -4 80 80 W 13 20 30.03 1017 10 16 N/A
2:36 am 02:36 Cloudy 28 -2 25 -4 86 86 W 15 24 30.03 1017 10 16 N/A
2:55 am 02:55 Cloudy 28 -2 25 -4 86 86 W 14 22 30.03 1017 5 8 N/A
3:16 am 03:16 Cloudy 28 -2 25 -4 86 86 W 9 15 30.03 1017 10 16 N/A
3:36 am 03:36 Cloudy 28 -2 25 -4 86 86 W 15 24 30.03 1017 7 11 N/A
3:55 am 03:55 Cloudy 28 -2 25 -4 86 86 W 14 22 30.03 1017 7 11 N/A
4:16 am 04:16 Cloudy 28 -2 25 -4 86 86 WSW 10 17 30.00 1016 5 8 N/A
4:36 am 04:36 Cloudy 28 -2 25 -4 86 86 W 14 22 30.00 1016 7 11 N/A
4:55 am 04:55 Cloudy 28 -2 25 -4 86 86 W 13 20 30.00 1016 10 16 N/A
5:16 am 05:16 Cloudy 28 -2 25 -4 86 86 W 12 19 30.00 1016 10 16 N/A
5:36 am 05:36 Cloudy 28 -2 27 -3 93 93 WSW 12 19 30.00 1016 7 11 N/A
5:55 am 05:55 Cloudy 28 -2 27 -3 93 93 WSW 10 17 30.00 1016 7 11 N/A
6:16 am 06:16 Cloudy 28 -2 27 -3 93 93 W 15 24 30.00 1016 4 6 N/A
6:36 am 06:36 Cloudy 28 -2 25 -4 86 86 WNW 15 24 30.00 1016 10 16 N/A
6:55 am 06:55 Cloudy 28 -2 23 -5 80 80 W 14 22 30.00 1016 10 16 N/A
7:16 am 07:16 Cloudy 28 -2 25 -4 86 86 W 12 19 30.03 1017 10 16 N/A
7:36 am 07:36 Cloudy 28 -2 23 -5 80 80 W 14 22 30.03 1017 10 16 N/A
7:55 am 07:55 Cloudy 28 -2 23 -5 80 80 W 13 20 30.03 1017 10 16 N/A
8:16 am 08:16 Cloudy 28 -2 23 -5 80 80 W 12 19 30.03 1017 10 16 N/A
8:26 am 08:26 Cloudy 28 -2 25 -4 86 86 W 12 19 30.03 1017 10 16 N/A
8:58 am 08:58 Cloudy 28 -2 25 -4 86 86 W 9 15 30.03 1017 5 8 N/A
9:16 am 09:16 Cloudy 28 -2 25 -4 86 86 W 12 19 N/A 7 11 N/A
9:36 am 09:36 Cloudy 28 -2 25 -4 86 86 WSW 10 17 30.03 1017 4 6 N/A
9:56 am 09:56 Cloudy 28 -2 25 -4 86 86 WSW 12 19 30.03 1017 7 11 N/A
10:15 am 10:15 Cloudy 30 -1 25 -4 80 80 WSW 14 22 30.03 1017 10 16 N/A
10:36 am 10:36 Cloudy 30 -1 27 -3 86 86 W 13 20 30.03 1017 10 16 N/A
10:56 am 10:56 Cloudy 30 -1 25 -4 80 80 W 13 20 30.00 1016 10 16 N/A
11:15 am 11:15 Cloudy 30 -1 25 -4 80 80 W 17 28 30.00 1016 7 11 N/A
11:36 am 11:36 Cloudy 30 -1 25 -4 80 80 WSW 10 17 30.00 1016 10 16 N/A
11:56 am 11:56 Cloudy 32 undefined 25 -4 75 75 W 17 28 30.00 1016 10 16 N/A
12:15 pm 12:15 Cloudy 32 undefined 25 -4 75 75 WSW 17 28 30.00 1016 10 16 N/A
12:36 pm 12:36 Cloudy 30 -1 25 -4 80 80 W 17 28 29.97 1015 10 16 N/A
12:56 pm 12:56 Cloudy 30 -1 25 -4 80 80 W 17 28 29.97 1015 10 16 N/A
1:15 pm 13:15 Cloudy 32 undefined 25 -4 75 75 WSW 20 31 29.97 1015 10 16 N/A
1:36 pm 13:36 Cloudy 32 undefined 25 -4 75 75 W 17 28 29.97 1015 10 16 N/A
1:56 pm 13:56 Cloudy 30 -1 25 -4 80 80 W 16 26 29.97 1015 10 16 N/A
2:15 pm 14:15 Cloudy 30 -1 25 -4 80 80 W 15 24 29.97 1015 10 16 N/A
2:36 pm 14:36 Cloudy 30 -1 25 -4 80 80 W 16 26 29.97 1015 10 16 N/A
2:56 pm 14:56 Cloudy 30 -1 25 -4 80 80 W 17 28 29.97 1015 10 16 N/A
3:15 pm 15:15 Cloudy 30 -1 25 -4 80 80 W 14 22 29.97 1015 10 16 N/A
3:36 pm 15:36 Cloudy 30 -1 23 -5 75 75 W 15 24 29.97 1015 10 16 N/A
3:56 pm 15:56 Cloudy 30 -1 23 -5 75 75 W 15 24 29.97 1015 10 16 N/A
4:15 pm 16:15 Cloudy 30 -1 25 -4 80 80 W 16 26 29.97 1015 7 11 N/A
4:36 pm 16:36 Cloudy 30 -1 23 -5 75 75 W 18 30 29.97 1015 10 16 N/A
4:56 pm 16:56 Cloudy 28 -2 23 -5 80 80 W 17 28 29.97 1015 10 16 N/A
5:15 pm 17:15 Cloudy 28 -2 23 -5 80 80 W 20 31 29.97 1015 10 16 N/A
5:36 pm 17:36 Cloudy 28 -2 23 -5 80 80 W 16 26 29.97 1015 10 16 N/A
5:56 pm 17:56 Cloudy 28 -2 21 -6 74 74 W 17 28 29.97 1015 10 16 N/A
6:15 pm 18:15 Cloudy 28 -2 23 -5 80 80 W 16 26 29.97 1015 10 16 N/A
6:36 pm 18:36 Cloudy 28 -2 21 -6 74 74 W 14 22 29.97 1015 10 16 N/A
6:56 pm 18:56 Cloudy 28 -2 21 -6 74 74 W 15 24 29.97 1015 10 16 N/A
7:15 pm 19:15 Cloudy 28 -2 21 -6 74 74 W 23 37 29.97 1015 10 16 N/A
7:36 pm 19:36 Cloudy 28 -2 21 -6 74 74 W 17 28 29.97 1015 10 16 N/A
7:56 pm 19:56 Cloudy 27 -3 23 -5 86 86 W 18 30 29.97 1015 10 16 N/A
8:15 pm 20:15 Cloudy 27 -3 21 -6 80 80 W 20 31 29.97 1015 10 16 N/A
8:36 pm 20:36 Cloudy 27 -3 21 -6 80 80 W 17 28 29.97 1015 10 16 N/A
8:56 pm 20:56 Cloudy 27 -3 21 -6 80 80 WSW 18 30 29.97 1015 10 16 N/A
9:15 pm 21:15 Cloudy 27 -3 21 -6 80 80 W 17 28 29.97 1015 10 16 N/A
9:36 pm 21:36 Cloudy 27 -3 21 -6 80 80 W 20 31 29.97 1015 10 16 N/A
9:56 pm 21:56 Cloudy 27 -3 21 -6 80 80 W 23 37 29.97 1015 10 16 N/A
10:15 pm 22:15 Cloudy 27 -3 19 -7 74 74 W 18 30 29.97 1015 10 16 N/A
10:36 pm 22:36 Cloudy 27 -3 19 -7 74 74 W 16 26 29.97 1015 10 16 N/A
10:56 pm 22:56 Cloudy 27 -3 21 -6 80 80 W 17 28 29.97 1015 10 16 N/A
11:15 pm 23:15 Cloudy 27 -3 19 -7 74 74 W 16 26 29.97 1015 10 16 N/A
11:36 pm 23:36 Cloudy 27 -3 19 -7 74 74 W 12 19 29.97 1015 10 16 N/A
11:56 pm 23:56 Cloudy 27 -3 21 -6 80 80 W 12 19 29.97 1015 10 16 N/A

Powered by AerisWeather